CW6344 Weather Reports


time (UTC)temp
F
wind
direction
speed
knots
gust
knots
rain 1hr
in
rain 24hr
in
rain mn
in
humidity
%
barometer
mb
20200531082422 66 324 0.0 0.9 0.00 0.00 0.00 56 1016.5
20200531075421 67 327 0.0 0.9 0.00 0.00 0.00 62 1016.1
20200531074421 67 346 0.9 2.6 0.00 0.00 0.00 61 1016.0
20200531073421 68 341 0.9 7.0 0.00 0.00 0.00 62 1015.7
20200531072421 68 279 0.0 0.9 0.00 0.00 0.00 65 1015.7
20200531070421 68 355 0.0 2.6 0.00 0.00 0.00 65 1015.6
20200531065421 68 299 2.6 3.5 0.00 0.00 0.00 65 1015.4
20200531064421 68 329 0.0 5.2 0.00 0.00 0.00 65 1015.3
20200531060420 67 303 1.7 2.6 0.00 0.00 0.00 70 1015.0
20200531052420 67 32 0.0 1.7 0.00 0.00 0.00 71 1014.9
20200531051420 67 36 0.0 0.9 0.00 0.00 0.00 74 1014.9
20200531045419 65 294 0.0 1.7 0.00 0.00 0.00 80 1014.8
20200531044419 65 242 0.0 0.9 0.00 0.00 0.00 82 1014.7
20200531042419 64 203 0.0 0.9 0.00 0.00 0.00 86 1014.5
20200531041419 64 116 0.0 0.0 0.00 0.00 0.00 88 1014.3
20200531040419 64 116 0.0 0.0 0.00 0.00 0.00 88 1014.4
20200531035419 64 116 0.0 0.0 0.00 0.00 0.00 89 1014.4
20200531034419 64 116 0.0 0.0 0.00 0.00 0.00 88 1014.3
20200531033418 64 116 0.0 0.9 0.00 0.00 0.00 87 1014.3
20200531032418 64 116 0.0 0.9 0.00 0.00 0.00 86 1014.3
20200531031419 65 116 0.0 0.0 0.00 0.00 0.00 86 1014.2
20200531030418 65 116 0.0 0.0 0.00 0.00 0.00 85 1014.1
20200531025418 65 116 0.0 0.0 0.00 0.00 0.00 85 1014.2
20200531024418 65 116 0.0 0.0 0.00 0.00 0.00 85 1014.2
20200531021418 66 116 0.0 1.7 0.00 0.00 0.00 83 1014.4
20200531015417 67 116 0.0 0.0 0.00 0.00 0.00 81 1014.1
20200531011416 69 116 0.0 0.0 0.00 0.00 0.00 78 1013.8
20200531004417 71 116 0.0 0.0 0.00 0.00 0.00 74 1013.6
20200531002416 72 116 0.0 0.0 0.00 0.00 0.00 72 1013.3
20200531001416 73 116 0.0 0.0 0.00 0.00 0.00 70 1013.3
20200531000416 74 116 0.0 0.0 0.00 0.00 0.00 68 1013.2
20200530231415 75 116 0.0 0.0 0.00 0.00 0.00 64 1012.9
20200530230415 75 116 0.0 0.0 0.00 0.00 0.00 63 1012.9
20200530225415 76 116 0.0 0.0 0.00 0.00 0.00 63 1012.9
20200530224415 76 116 0.0 0.0 0.00 0.00 0.00 64 1012.8
20200530223415 76 116 0.0 0.0 0.00 0.00 0.00 62 1012.6
20200530222415 77 116 0.0 0.0 0.00 0.00 0.00 61 1012.5
20200530215415 78 116 0.0 0.9 0.00 0.00 0.00 61 1012.5
20200530214414 79 86 0.0 0.0 0.00 0.00 0.00 59 1012.5
20200530213415 78 86 0.0 0.0 0.00 0.00 0.00 62 1012.5
20200530212414 78 86 0.0 0.9 0.00 0.00 0.00 58 1012.6
20200530205413 80 87 0.0 1.7 0.00 0.00 0.00 59 1013.0
20200530204413 80 150 0.0 1.7 0.00 0.00 0.00 64 1013.1
20200530201413 79 261 0.9 2.6 0.00 0.00 0.00 52 1013.1
20200530195413 79 76 0.0 0.9 0.00 0.00 0.00 67 1012.9
20200530194412 79 69 0.9 1.7 0.00 0.00 0.00 67 1012.8
20200530193413 80 59 0.9 1.7 0.00 0.01 0.00 60 1012.9
20200530192412 80 355 0.0 0.9 0.00 0.01 0.00 58 1013.0
20200530191412 80 330 0.0 2.6 0.00 0.01 0.00 59 1013.0
20200530183412 79 300 0.0 0.9 0.00 0.01 0.00 59 1013.4
20200530182412 78 304 0.0 0.9 0.00 0.01 0.00 70 1013.5
20200530180412 77 149 0.9 5.2 0.00 0.01 0.00 61 1013.6
20200530175411 78 268 0.9 0.9 0.00 0.01 0.00 66 1013.6
20200530174411 77 360 2.6 2.6 0.00 0.01 0.00 67 1013.6
20200530172411 78 330 2.6 2.6 0.00 0.01 0.00 63 1013.6
20200530171411 78 52 0.0 2.6 0.00 0.01 0.00 63 1013.5
20200530170411 77 109 0.9 0.9 0.00 0.01 0.00 69 1013.6
20200530163410 78 300 2.6 2.6 0.00 0.01 0.00 66 1013.7
20200530162410 78 104 1.7 3.5 0.00 0.01 0.00 65 1013.7
20200530161410 78 327 1.7 1.7 0.00 0.01 0.00 67 1013.6
20200530155410 78 292 1.7 2.6 0.00 0.01 0.00 71 1013.7
20200530153410 77 216 1.7 3.5 0.00 0.01 0.00 69 1013.9
20200530152409 77 9 0.9 2.6 0.00 0.01 0.00 70 1014.1
20200530151409 77 348 0.9 3.5 0.00 0.01 0.00 70 1014.1
20200530144409 76 273 0.0 2.6 0.00 0.01 0.00 71 1014.3
20200530143409 76 345 0.0 3.5 0.00 0.01 0.00 74 1014.3
20200530142409 75 68 1.7 2.6 0.00 0.01 0.00 73 1014.4
20200530141409 75 319 2.6 3.5 0.00 0.01 0.00 73 1014.4
20200530140409 75 327 0.0 1.7 0.00 0.01 0.00 77 1014.4
20200530133408 73 311 0.9 2.6 0.00 0.01 0.00 80 1014.6
20200530132409 73 288 0.0 1.7 0.00 0.01 0.00 81 1014.7
20200530131408 73 278 0.0 1.7 0.00 0.01 0.00 82 1014.7
20200530130408 73 297 1.7 2.6 0.00 0.01 0.00 83 1014.7
20200530125408 72 5 0.0 0.0 0.00 0.01 0.00 82 1014.5
20200530124407 72 261 0.0 0.9 0.00 0.01 0.00 82 1014.6
20200530123407 72 175 2.6 2.6 0.00 0.01 0.00 85 1014.5
20200530122407 72 53 0.9 1.7 0.00 0.01 0.00 86 1014.4
20200530121407 71 248 0.0 1.7 0.00 0.01 0.00 90 1014.4
20200530120407 71 252 0.0 1.7 0.00 0.01 0.00 93 1014.4
20200530115407 71 215 0.0 0.0 0.00 0.01 0.00 93 1014.3
20200530113407 70 215 0.0 0.0 0.00 0.01 0.00 94 1014.1
20200530112407 70 215 0.0 0.0 0.00 0.01 0.00 94 1014.1
20200530105406 70 295 0.0 0.0 0.00 0.01 0.00 94 1013.9
20200530104406 70 262 0.0 0.9 0.00 0.01 0.00 94 1013.9
20200530101407 70 272 0.0 0.0 0.00 0.01 0.00 94 1013.7
20200530100405 70 290 0.0 0.0 0.00 0.01 0.00 94 1013.6
20200530095405 70 289 0.0 0.9 0.00 0.01 0.00 93 1013.4
20200530090405 71 277 0.0 3.5 0.00 0.01 0.00 94 1013.1
20200530083405 71 311 2.6 2.6 0.00 0.01 0.00 94 1012.9